N12215 KHHR-KGCN

Flight info

Callsign N12215
Flight time 1h 43m
Altitude 23000
Route SPACX2 SPACX SLI V372 PSP V370 TNP V208 GCN
Aircraft BE36/L-VGD/C

Departure

Time 2026-04-26 01:51
Airport Jack Northrop Field Hawthorne Municipal Airport (KHHR)

Arrival

Time 2026-04-26 03:35
Airport Grand Canyon National Park Airport (KGCN)
Time Latitude Longitude Altitude Speed Heading
2026-04-26 01:36 33.92253 -118.32834 56 ft 0 kts 358°
2026-04-26 01:47 33.92255 -118.32834 56 ft 0 kts 358°
2026-04-26 01:48 33.92260 -118.32834 56 ft 3 kts 357°
2026-04-26 01:48 33.92274 -118.32767 56 ft 12 kts 87°
2026-04-26 01:48 33.92287 -118.32721 56 ft 0 kts 26°
2026-04-26 01:49 33.92303 -118.32716 56 ft 7 kts 344°
2026-04-26 01:49 33.92320 -118.32778 56 ft 8 kts 266°
2026-04-26 01:50 33.92317 -118.32837 56 ft 6 kts 267°
2026-04-26 01:50 33.92313 -118.32906 56 ft 26 kts 264°
2026-04-26 01:50 33.92302 -118.33369 60 ft 75 kts 263°
2026-04-26 01:50 33.92286 -118.33985 237 ft 70 kts 256°
2026-04-26 01:51 33.92079 -118.34505 352 ft 74 kts 253°
2026-04-26 01:51 33.92047 -118.35144 575 ft 78 kts 264°
2026-04-26 01:51 33.92044 -118.35813 823 ft 80 kts 264°
2026-04-26 01:51 33.91911 -118.36431 1082 ft 77 kts 231°
2026-04-26 01:52 33.91470 -118.36866 1240 ft 89 kts 208°
2026-04-26 01:52 33.90908 -118.37235 1439 ft 94 kts 210°
2026-04-26 01:52 33.90335 -118.37647 1666 ft 95 kts 213°
2026-04-26 01:52 33.89774 -118.38079 1888 ft 97 kts 215°
2026-04-26 01:53 33.89154 -118.38578 1966 ft 117 kts 216°
2026-04-26 01:53 33.88415 -118.39189 1977 ft 137 kts 217°
2026-04-26 01:53 33.87592 -118.39882 1974 ft 150 kts 217°
2026-04-26 01:53 33.86738 -118.40599 1962 ft 149 kts 218°
2026-04-26 01:54 33.85885 -118.41320 1957 ft 148 kts 217°
2026-04-26 01:54 33.85049 -118.42027 1961 ft 146 kts 217°
2026-04-26 01:54 33.84234 -118.42711 2160 ft 137 kts 217°
2026-04-26 01:54 33.83498 -118.43306 2595 ft 123 kts 213°
2026-04-26 01:55 33.82774 -118.43806 2920 ft 119 kts 212°
2026-04-26 01:55 33.82054 -118.44290 3205 ft 119 kts 212°
2026-04-26 01:55 33.81328 -118.44773 3485 ft 119 kts 212°
2026-04-26 01:55 33.80599 -118.45258 3761 ft 119 kts 212°
2026-04-26 01:56 33.79877 -118.45737 4039 ft 119 kts 212°
2026-04-26 01:56 33.79156 -118.46214 4316 ft 119 kts 212°
2026-04-26 01:56 33.78426 -118.46693 4599 ft 119 kts 212°
2026-04-26 01:56 33.77701 -118.47163 4862 ft 119 kts 212°
2026-04-26 01:57 33.76935 -118.47658 4960 ft 132 kts 212°
2026-04-26 01:57 33.76076 -118.48222 5050 ft 141 kts 212°
2026-04-26 01:57 33.75305 -118.48720 5609 ft 115 kts 212°
2026-04-26 01:57 33.74647 -118.49129 6012 ft 104 kts 212°
2026-04-26 01:58 33.74006 -118.49524 6310 ft 102 kts 212°
2026-04-26 01:58 33.73373 -118.49909 6571 ft 103 kts 212°
2026-04-26 01:58 33.72745 -118.50285 6879 ft 100 kts 211°
2026-04-26 01:58 33.72029 -118.50294 7149 ft 112 kts 165°
2026-04-26 01:59 33.71447 -118.49626 7394 ft 125 kts 121°
2026-04-26 01:59 33.71235 -118.48590 7647 ft 129 kts 102°
2026-04-26 01:59 33.71101 -118.47529 7898 ft 130 kts 101°
2026-04-26 01:59 33.70971 -118.46447 8143 ft 131 kts 101°
2026-04-26 02:00 33.70844 -118.45369 8389 ft 132 kts 101°
2026-04-26 02:00 33.70721 -118.44285 8645 ft 132 kts 101°
2026-04-26 02:00 33.70599 -118.43193 8899 ft 133 kts 101°
2026-04-26 02:00 33.70474 -118.42084 9161 ft 133 kts 101°
2026-04-26 02:01 33.70355 -118.40990 9410 ft 134 kts 101°
2026-04-26 02:01 33.70236 -118.39878 9672 ft 134 kts 101°
2026-04-26 02:01 33.70115 -118.38757 9931 ft 135 kts 101°
2026-04-26 02:01 33.70000 -118.37637 10183 ft 136 kts 99°
2026-04-26 02:02 33.70124 -118.36502 10425 ft 141 kts 76°
2026-04-26 02:02 33.70392 -118.35365 10672 ft 142 kts 73°
2026-04-26 02:02 33.70694 -118.34199 10861 ft 149 kts 73°
2026-04-26 02:02 33.71012 -118.32998 11048 ft 155 kts 73°
2026-04-26 02:03 33.71344 -118.31750 11271 ft 158 kts 73°
2026-04-26 02:03 33.71679 -118.30489 11522 ft 158 kts 73°
2026-04-26 02:03 33.72014 -118.29230 11764 ft 159 kts 73°
2026-04-26 02:03 33.72353 -118.27955 11988 ft 161 kts 73°
2026-04-26 02:04 33.72699 -118.26665 12226 ft 162 kts 73°
2026-04-26 02:04 33.73043 -118.25378 12445 ft 164 kts 73°
2026-04-26 02:04 33.73391 -118.24070 12682 ft 165 kts 74°
2026-04-26 02:04 33.73743 -118.22749 12895 ft 167 kts 74°
2026-04-26 02:05 33.74097 -118.21420 13113 ft 169 kts 74°
2026-04-26 02:05 33.74451 -118.20087 13353 ft 169 kts 74°
2026-04-26 02:05 33.74809 -118.18748 13572 ft 170 kts 74°
2026-04-26 02:05 33.75168 -118.17393 13796 ft 171 kts 74°
2026-04-26 02:06 33.75533 -118.16020 14031 ft 171 kts 75°
2026-04-26 02:06 33.75897 -118.14649 14261 ft 172 kts 75°
2026-04-26 02:06 33.76258 -118.13286 14477 ft 173 kts 75°
2026-04-26 02:06 33.76625 -118.11908 14707 ft 174 kts 75°
2026-04-26 02:07 33.76998 -118.10498 14927 ft 176 kts 75°
2026-04-26 02:07 33.77367 -118.09104 15143 ft 178 kts 74°
2026-04-26 02:07 33.77743 -118.07690 15384 ft 177 kts 74°
2026-04-26 02:07 33.78119 -118.06265 15600 ft 179 kts 74°
2026-04-26 02:08 33.78342 -118.04830 15867 ft 173 kts 94°
2026-04-26 02:08 33.78342 -118.03413 16136 ft 170 kts 98°
2026-04-26 02:08 33.78323 -118.01985 16409 ft 169 kts 98°
2026-04-26 02:08 33.78308 -118.00571 16637 ft 171 kts 98°
2026-04-26 02:09 33.78298 -117.99136 16876 ft 173 kts 98°
2026-04-26 02:09 33.78290 -117.97684 17111 ft 174 kts 98°
2026-04-26 02:09 33.78283 -117.96242 17364 ft 174 kts 98°
2026-04-26 02:09 33.78276 -117.94768 17603 ft 175 kts 98°
2026-04-26 02:10 33.78266 -117.93297 17843 ft 176 kts 98°
2026-04-26 02:10 33.78257 -117.91818 18077 ft 178 kts 98°
2026-04-26 02:10 33.78251 -117.90350 18299 ft 179 kts 98°
2026-04-26 02:10 33.78243 -117.88840 18549 ft 178 kts 99°
2026-04-26 02:11 33.78236 -117.87346 18785 ft 179 kts 99°
2026-04-26 02:11 33.78225 -117.85850 18998 ft 181 kts 99°
2026-04-26 02:11 33.78217 -117.84330 19225 ft 182 kts 100°
2026-04-26 02:11 33.78207 -117.82825 19438 ft 183 kts 101°
2026-04-26 02:12 33.78198 -117.81297 19647 ft 184 kts 101°
2026-04-26 02:12 33.78187 -117.79762 19880 ft 182 kts 101°
2026-04-26 02:12 33.78175 -117.78236 20088 ft 183 kts 102°
2026-04-26 02:12 33.78165 -117.76716 20287 ft 184 kts 102°
2026-04-26 02:13 33.78154 -117.75160 20474 ft 185 kts 102°
2026-04-26 02:13 33.78144 -117.73636 20665 ft 185 kts 103°
2026-04-26 02:13 33.78135 -117.72080 20852 ft 185 kts 103°
2026-04-26 02:13 33.78122 -117.70531 21017 ft 187 kts 103°
2026-04-26 02:14 33.78110 -117.68977 21185 ft 187 kts 103°
2026-04-26 02:14 33.78095 -117.67403 21335 ft 189 kts 103°
2026-04-26 02:14 33.78084 -117.65818 21500 ft 189 kts 104°
2026-04-26 02:14 33.78075 -117.64234 21675 ft 189 kts 104°
2026-04-26 02:15 33.78059 -117.62665 21810 ft 190 kts 104°
2026-04-26 02:15 33.78045 -117.61059 21948 ft 192 kts 104°
2026-04-26 02:15 33.78035 -117.59469 22096 ft 192 kts 104°
2026-04-26 02:15 33.78021 -117.57870 22226 ft 193 kts 105°
2026-04-26 02:16 33.78008 -117.56251 22364 ft 193 kts 105°
2026-04-26 02:16 33.77993 -117.54636 22498 ft 193 kts 105°
2026-04-26 02:16 33.77978 -117.53016 22632 ft 194 kts 105°
2026-04-26 02:16 33.77964 -117.51417 22762 ft 194 kts 105°
2026-04-26 02:17 33.77951 -117.49784 22893 ft 194 kts 105°
2026-04-26 02:17 33.77935 -117.48159 22940 ft 199 kts 106°
2026-04-26 02:17 33.77909 -117.46470 22945 ft 207 kts 105°
2026-04-26 02:17 33.77891 -117.44714 22951 ft 214 kts 104°
2026-04-26 02:18 33.77869 -117.42873 22954 ft 221 kts 104°
2026-04-26 02:18 33.77852 -117.41027 22946 ft 226 kts 103°
2026-04-26 02:18 33.77834 -117.39126 22948 ft 229 kts 103°
2026-04-26 02:18 33.77816 -117.37191 22949 ft 231 kts 102°
2026-04-26 02:19 33.77803 -117.35271 22951 ft 232 kts 103°
2026-04-26 02:19 33.77781 -117.33305 22936 ft 233 kts 103°
2026-04-26 02:19 33.77766 -117.31361 22937 ft 233 kts 104°
2026-04-26 02:19 33.77745 -117.29424 22937 ft 232 kts 104°
2026-04-26 02:20 33.77722 -117.27473 22934 ft 232 kts 104°
2026-04-26 02:20 33.77703 -117.25538 22932 ft 231 kts 104°
2026-04-26 02:20 33.77679 -117.23615 22935 ft 231 kts 104°
2026-04-26 02:20 33.77658 -117.21677 22937 ft 232 kts 104°
2026-04-26 02:21 33.77634 -117.19747 22933 ft 233 kts 104°
2026-04-26 02:21 33.77860 -117.17775 22953 ft 247 kts 79°
2026-04-26 02:21 33.78479 -117.15824 22947 ft 251 kts 73°
2026-04-26 02:21 33.79166 -117.13878 22944 ft 252 kts 73°
2026-04-26 02:22 33.79837 -117.11941 22935 ft 252 kts 73°
2026-04-26 02:22 33.80511 -117.09991 22940 ft 253 kts 73°
2026-04-26 02:22 33.81179 -117.08024 22933 ft 254 kts 73°
2026-04-26 02:22 33.81846 -117.06070 22941 ft 255 kts 74°
2026-04-26 02:23 33.82505 -117.04101 22942 ft 255 kts 73°
2026-04-26 02:23 33.83175 -117.02120 22943 ft 256 kts 74°
2026-04-26 02:23 33.83855 -117.00116 22940 ft 256 kts 74°
2026-04-26 02:23 33.84515 -116.98142 22935 ft 256 kts 73°
2026-04-26 02:24 33.85184 -116.96166 22947 ft 256 kts 73°
2026-04-26 02:24 33.85852 -116.94172 22940 ft 257 kts 73°
2026-04-26 02:24 33.86523 -116.92183 22952 ft 257 kts 73°
2026-04-26 02:24 33.87189 -116.90215 22957 ft 257 kts 74°
2026-04-26 02:25 33.87860 -116.88206 22929 ft 259 kts 74°
2026-04-26 02:25 33.88537 -116.86180 22931 ft 258 kts 74°
2026-04-26 02:25 33.88907 -116.84141 22940 ft 242 kts 100°
2026-04-26 02:25 33.88864 -116.82163 22922 ft 238 kts 106°
2026-04-26 02:26 33.88761 -116.80179 22924 ft 237 kts 107°
2026-04-26 02:26 33.88662 -116.78200 22933 ft 236 kts 107°
2026-04-26 02:26 33.88561 -116.76243 22923 ft 237 kts 106°
2026-04-26 02:26 33.88464 -116.74245 22914 ft 238 kts 106°
2026-04-26 02:27 33.88374 -116.72263 22910 ft 238 kts 106°
2026-04-26 02:27 33.88282 -116.70289 22907 ft 238 kts 106°
2026-04-26 02:27 33.88191 -116.68295 22917 ft 238 kts 106°
2026-04-26 02:27 33.88100 -116.66315 22899 ft 238 kts 105°
2026-04-26 02:28 33.88009 -116.64322 22904 ft 238 kts 104°
2026-04-26 02:28 33.87916 -116.62332 22925 ft 237 kts 105°
2026-04-26 02:28 33.87823 -116.60371 22919 ft 238 kts 105°
2026-04-26 02:28 33.87731 -116.58377 22913 ft 239 kts 105°
2026-04-26 02:29 33.87640 -116.56386 22908 ft 239 kts 105°
2026-04-26 02:29 33.87545 -116.54389 22905 ft 238 kts 105°
2026-04-26 02:29 33.87450 -116.52400 22890 ft 238 kts 105°
2026-04-26 02:29 33.87356 -116.50421 22890 ft 238 kts 106°
2026-04-26 02:30 33.87259 -116.48438 22872 ft 238 kts 105°
2026-04-26 02:30 33.87162 -116.46448 22867 ft 238 kts 105°
2026-04-26 02:30 33.87068 -116.44486 22874 ft 238 kts 106°
2026-04-26 02:30 33.87206 -116.42470 22882 ft 251 kts 80°
2026-04-26 02:31 33.87867 -116.40480 22884 ft 255 kts 70°
2026-04-26 02:31 33.88609 -116.38536 22865 ft 256 kts 70°
2026-04-26 02:31 33.89350 -116.36595 22874 ft 256 kts 70°
2026-04-26 02:31 33.90072 -116.34650 22878 ft 255 kts 70°
2026-04-26 02:32 33.90794 -116.32724 22874 ft 255 kts 71°
2026-04-26 02:32 33.91522 -116.30753 22867 ft 255 kts 70°
2026-04-26 02:32 33.92240 -116.28818 22858 ft 255 kts 71°
2026-04-26 02:32 33.92958 -116.26874 22843 ft 255 kts 71°
2026-04-26 02:33 33.93677 -116.24930 22841 ft 255 kts 71°
2026-04-26 02:33 33.94391 -116.22984 22844 ft 254 kts 72°
2026-04-26 02:33 33.95105 -116.21053 22847 ft 254 kts 71°
2026-04-26 02:33 33.95817 -116.19112 22833 ft 255 kts 71°
2026-04-26 02:34 33.96543 -116.17144 22830 ft 255 kts 70°
2026-04-26 02:34 33.97256 -116.15199 22831 ft 255 kts 71°
2026-04-26 02:34 33.97974 -116.13252 22833 ft 254 kts 71°
2026-04-26 02:34 33.98685 -116.11324 22827 ft 254 kts 71°
2026-04-26 02:35 33.99402 -116.09361 22824 ft 254 kts 71°
2026-04-26 02:35 34.00114 -116.07431 22833 ft 253 kts 71°
2026-04-26 02:35 34.00824 -116.05486 22830 ft 254 kts 71°
2026-04-26 02:35 34.01539 -116.03532 22816 ft 254 kts 70°
2026-04-26 02:36 34.02249 -116.01595 22815 ft 254 kts 70°
2026-04-26 02:36 34.02959 -115.99656 22811 ft 253 kts 71°
2026-04-26 02:36 34.03666 -115.97719 22808 ft 253 kts 70°
2026-04-26 02:36 34.04373 -115.95789 22802 ft 253 kts 71°
2026-04-26 02:37 34.05088 -115.93837 22801 ft 253 kts 70°
2026-04-26 02:37 34.05796 -115.91901 22801 ft 252 kts 71°
2026-04-26 02:37 34.06503 -115.89970 22795 ft 252 kts 71°
2026-04-26 02:37 34.07210 -115.88035 22794 ft 251 kts 71°
2026-04-26 02:38 34.07912 -115.86105 22788 ft 251 kts 71°
2026-04-26 02:38 34.08610 -115.84185 22789 ft 251 kts 71°
2026-04-26 02:38 34.09308 -115.82265 22788 ft 252 kts 71°
2026-04-26 02:38 34.10014 -115.80325 22790 ft 252 kts 71°
2026-04-26 02:39 34.10719 -115.78384 22779 ft 252 kts 71°
2026-04-26 02:39 34.11478 -115.76472 22785 ft 253 kts 63°
2026-04-26 02:39 34.12390 -115.74662 22780 ft 254 kts 59°
2026-04-26 02:39 34.13327 -115.72866 22775 ft 253 kts 59°
2026-04-26 02:40 34.14259 -115.71066 22771 ft 253 kts 59°
2026-04-26 02:40 34.15200 -115.69248 22774 ft 253 kts 60°
2026-04-26 02:40 34.16119 -115.67461 22766 ft 254 kts 60°
2026-04-26 02:40 34.17046 -115.65646 22764 ft 254 kts 60°
2026-04-26 02:41 34.17974 -115.63840 22771 ft 254 kts 60°
2026-04-26 02:41 34.18901 -115.62032 22764 ft 253 kts 60°
2026-04-26 02:41 34.19825 -115.60214 22764 ft 253 kts 60°
2026-04-26 02:41 34.20749 -115.58406 22766 ft 253 kts 60°
2026-04-26 02:42 34.21673 -115.56603 22770 ft 253 kts 60°
2026-04-26 02:42 34.22601 -115.54798 22771 ft 253 kts 60°
2026-04-26 02:42 34.23529 -115.52968 22770 ft 253 kts 60°
2026-04-26 02:42 34.24446 -115.51166 22770 ft 253 kts 60°
2026-04-26 02:43 34.26295 -115.47544 22761 ft 253 kts 61°
2026-04-26 02:43 34.27211 -115.45745 22758 ft 253 kts 60°
2026-04-26 02:43 34.28142 -115.43925 22757 ft 253 kts 60°
2026-04-26 02:44 34.29057 -115.42124 22754 ft 253 kts 61°
2026-04-26 02:44 34.29974 -115.40312 22752 ft 253 kts 60°
2026-04-26 02:44 34.30896 -115.38500 22750 ft 253 kts 61°
2026-04-26 02:44 34.31821 -115.36677 22748 ft 254 kts 60°
2026-04-26 02:45 34.32748 -115.34863 22750 ft 254 kts 60°
2026-04-26 02:45 34.33659 -115.33061 22743 ft 254 kts 60°
2026-04-26 02:45 34.34586 -115.31239 22743 ft 253 kts 61°
2026-04-26 02:45 34.35506 -115.29421 22742 ft 252 kts 62°
2026-04-26 02:46 34.36423 -115.27609 22742 ft 252 kts 61°
2026-04-26 02:46 34.37334 -115.25811 22743 ft 252 kts 62°
2026-04-26 02:46 34.38240 -115.24018 22743 ft 252 kts 62°
2026-04-26 02:46 34.39165 -115.22195 22736 ft 252 kts 61°
2026-04-26 02:47 34.40076 -115.20393 22739 ft 252 kts 62°
2026-04-26 02:47 34.40985 -115.18599 22739 ft 252 kts 62°
2026-04-26 02:47 34.41902 -115.16780 22737 ft 252 kts 61°
2026-04-26 02:47 34.42818 -115.14959 22741 ft 253 kts 61°
2026-04-26 02:48 34.43730 -115.13161 22737 ft 253 kts 62°
2026-04-26 02:48 34.44644 -115.11350 22736 ft 253 kts 62°
2026-04-26 02:48 34.45563 -115.09534 22732 ft 253 kts 62°
2026-04-26 02:48 34.46477 -115.07710 22737 ft 253 kts 62°
2026-04-26 02:49 34.47388 -115.05904 22726 ft 253 kts 62°
2026-04-26 02:49 34.48302 -115.04084 22722 ft 252 kts 62°
2026-04-26 02:49 34.49224 -115.02261 22726 ft 252 kts 62°
2026-04-26 02:49 34.50133 -115.00449 22721 ft 252 kts 62°
2026-04-26 02:50 34.51034 -114.98650 22725 ft 253 kts 61°
2026-04-26 02:50 34.51959 -114.96810 22728 ft 253 kts 61°
2026-04-26 02:50 34.52869 -114.95001 22725 ft 253 kts 62°
2026-04-26 02:50 34.53783 -114.93190 22727 ft 253 kts 62°
2026-04-26 02:51 34.54707 -114.91348 22728 ft 253 kts 62°
2026-04-26 02:51 34.55608 -114.89547 22729 ft 253 kts 62°
2026-04-26 02:51 34.56527 -114.87710 22733 ft 253 kts 62°
2026-04-26 02:51 34.57431 -114.85898 22735 ft 253 kts 62°
2026-04-26 02:52 34.58342 -114.84091 22737 ft 252 kts 61°
2026-04-26 02:52 34.59257 -114.82257 22745 ft 252 kts 61°
2026-04-26 02:52 34.60162 -114.80447 22749 ft 252 kts 62°
2026-04-26 02:52 34.61069 -114.78642 22761 ft 252 kts 62°
2026-04-26 02:53 34.61974 -114.76829 22758 ft 252 kts 62°
2026-04-26 02:53 34.62880 -114.75008 22760 ft 252 kts 62°
2026-04-26 02:53 34.63785 -114.73199 22760 ft 252 kts 62°
2026-04-26 02:53 34.64697 -114.71366 22761 ft 252 kts 62°
2026-04-26 02:54 34.65599 -114.69556 22758 ft 253 kts 62°
2026-04-26 02:54 34.66517 -114.67716 22753 ft 253 kts 62°
2026-04-26 02:54 34.67420 -114.65900 22755 ft 253 kts 62°
2026-04-26 02:54 34.68330 -114.64072 22752 ft 253 kts 62°
2026-04-26 02:55 34.69246 -114.62237 22752 ft 253 kts 62°
2026-04-26 02:55 34.70146 -114.60429 22748 ft 253 kts 62°
2026-04-26 02:55 34.71056 -114.58588 22740 ft 253 kts 62°
2026-04-26 02:55 34.71967 -114.56752 22739 ft 253 kts 61°
2026-04-26 02:56 34.72874 -114.54930 22734 ft 254 kts 61°
2026-04-26 02:56 34.73785 -114.53096 22736 ft 254 kts 62°
2026-04-26 02:56 34.74692 -114.51272 22734 ft 254 kts 61°
2026-04-26 02:56 34.75607 -114.49421 22739 ft 253 kts 61°
2026-04-26 02:57 34.76540 -114.47607 22729 ft 255 kts 52°
2026-04-26 02:57 34.77781 -114.46086 22748 ft 254 kts 38°
2026-04-26 02:57 34.79116 -114.44680 22748 ft 254 kts 38°
2026-04-26 02:57 34.80446 -114.43285 22750 ft 255 kts 38°
2026-04-26 02:58 34.81784 -114.41869 22747 ft 255 kts 39°
2026-04-26 02:58 34.83133 -114.40439 22749 ft 255 kts 39°
2026-04-26 02:58 34.84449 -114.39030 22753 ft 255 kts 39°
2026-04-26 02:58 34.85793 -114.37589 22755 ft 255 kts 39°
2026-04-26 02:59 34.87122 -114.36173 22760 ft 255 kts 39°
2026-04-26 02:59 34.88450 -114.34748 22763 ft 254 kts 40°
2026-04-26 02:59 34.89783 -114.33323 22755 ft 254 kts 40°
2026-04-26 02:59 34.91105 -114.31911 22765 ft 253 kts 40°
2026-04-26 03:00 34.92429 -114.30493 22766 ft 253 kts 40°
2026-04-26 03:00 34.93729 -114.29092 22774 ft 252 kts 39°
2026-04-26 03:00 34.95050 -114.27676 22784 ft 252 kts 40°
2026-04-26 03:00 34.96370 -114.26263 22789 ft 252 kts 39°
2026-04-26 03:01 34.97673 -114.24854 22793 ft 252 kts 39°
2026-04-26 03:01 34.99000 -114.23431 22802 ft 251 kts 39°
2026-04-26 03:01 35.00306 -114.22021 22817 ft 251 kts 38°
2026-04-26 03:01 35.01620 -114.20611 22822 ft 251 kts 39°
2026-04-26 03:02 35.02922 -114.19213 22825 ft 251 kts 39°
2026-04-26 03:02 35.04228 -114.17810 22824 ft 252 kts 39°
2026-04-26 03:02 35.05559 -114.16375 22824 ft 252 kts 39°
2026-04-26 03:02 35.06866 -114.14964 22824 ft 253 kts 39°
2026-04-26 03:03 35.08180 -114.13549 22833 ft 253 kts 39°
2026-04-26 03:03 35.09501 -114.12125 22838 ft 253 kts 39°
2026-04-26 03:03 35.10815 -114.10709 22836 ft 252 kts 39°
2026-04-26 03:03 35.12126 -114.09288 22835 ft 252 kts 39°
2026-04-26 03:04 35.13440 -114.07873 22829 ft 252 kts 39°
2026-04-26 03:04 35.14759 -114.06450 22830 ft 251 kts 39°
2026-04-26 03:04 35.16069 -114.05030 22830 ft 251 kts 40°
2026-04-26 03:04 35.17368 -114.03623 22827 ft 251 kts 40°
2026-04-26 03:05 35.18673 -114.02213 22831 ft 250 kts 39°
2026-04-26 03:05 35.19976 -114.00805 22833 ft 250 kts 39°
2026-04-26 03:05 35.21269 -113.99402 22835 ft 250 kts 39°
2026-04-26 03:05 35.22569 -113.97994 22845 ft 249 kts 39°
2026-04-26 03:06 35.23879 -113.96577 22846 ft 249 kts 39°
2026-04-26 03:06 35.25171 -113.95177 22847 ft 249 kts 39°
2026-04-26 03:06 35.26473 -113.93765 22849 ft 249 kts 39°
2026-04-26 03:06 35.27764 -113.92363 22849 ft 250 kts 39°
2026-04-26 03:07 35.29068 -113.90945 22846 ft 250 kts 39°
2026-04-26 03:07 35.30365 -113.89538 22847 ft 250 kts 39°
2026-04-26 03:07 35.31651 -113.88129 22840 ft 250 kts 41°
2026-04-26 03:07 35.32594 -113.86379 22850 ft 245 kts 69°
2026-04-26 03:08 35.33241 -113.84441 22848 ft 243 kts 75°
2026-04-26 03:08 35.33793 -113.82521 22854 ft 242 kts 77°
2026-04-26 03:08 35.34332 -113.80550 22858 ft 242 kts 78°
2026-04-26 03:08 35.34849 -113.78612 22859 ft 242 kts 78°
2026-04-26 03:09 35.35362 -113.76649 22859 ft 242 kts 78°
2026-04-26 03:09 35.35873 -113.74693 22861 ft 242 kts 79°
2026-04-26 03:09 35.36383 -113.72733 22859 ft 242 kts 78°
2026-04-26 03:09 35.36893 -113.70776 22859 ft 241 kts 78°
2026-04-26 03:10 35.37395 -113.68827 22874 ft 241 kts 78°
2026-04-26 03:10 35.37907 -113.66863 22881 ft 241 kts 78°
2026-04-26 03:10 35.38410 -113.64918 22879 ft 241 kts 78°
2026-04-26 03:10 35.38918 -113.62960 22872 ft 242 kts 78°
2026-04-26 03:11 35.39430 -113.60986 22871 ft 242 kts 78°
2026-04-26 03:11 35.39935 -113.59035 22869 ft 242 kts 78°
2026-04-26 03:11 35.40443 -113.57063 22871 ft 242 kts 78°
2026-04-26 03:11 35.40951 -113.55097 22872 ft 242 kts 78°
2026-04-26 03:12 35.41454 -113.53153 22876 ft 242 kts 78°
2026-04-26 03:12 35.41959 -113.51193 22879 ft 242 kts 78°
2026-04-26 03:12 35.42467 -113.49229 22879 ft 241 kts 78°
2026-04-26 03:12 35.42970 -113.47265 22878 ft 241 kts 78°
2026-04-26 03:13 35.43473 -113.45309 22882 ft 241 kts 78°
2026-04-26 03:13 35.43975 -113.43362 22886 ft 241 kts 78°
2026-04-26 03:13 35.44472 -113.41415 22888 ft 241 kts 78°
2026-04-26 03:13 35.44977 -113.39455 22891 ft 240 kts 78°
2026-04-26 03:14 35.45476 -113.37511 22900 ft 239 kts 78°
2026-04-26 03:14 35.45972 -113.35561 22905 ft 240 kts 77°
2026-04-26 03:14 35.46472 -113.33611 22898 ft 240 kts 78°
2026-04-26 03:14 35.46971 -113.31667 22896 ft 239 kts 78°
2026-04-26 03:15 35.47466 -113.29736 22901 ft 238 kts 78°
2026-04-26 03:15 35.47958 -113.27803 22902 ft 238 kts 78°
2026-04-26 03:15 35.48457 -113.25848 22889 ft 239 kts 78°
2026-04-26 03:15 35.48952 -113.23914 22894 ft 238 kts 78°
2026-04-26 03:16 35.49446 -113.21970 22895 ft 238 kts 78°
2026-04-26 03:16 35.49935 -113.20054 22903 ft 237 kts 78°
2026-04-26 03:16 35.50429 -113.18112 22903 ft 238 kts 78°
2026-04-26 03:16 35.50917 -113.16201 22908 ft 237 kts 78°
2026-04-26 03:17 35.51409 -113.14266 22911 ft 237 kts 78°
2026-04-26 03:17 35.51902 -113.12337 22917 ft 237 kts 78°
2026-04-26 03:17 35.52391 -113.10395 22916 ft 237 kts 78°
2026-04-26 03:17 35.52879 -113.08479 22921 ft 237 kts 78°
2026-04-26 03:18 35.53366 -113.06552 22924 ft 237 kts 78°
2026-04-26 03:18 35.53854 -113.04623 22916 ft 235 kts 78°
2026-04-26 03:18 35.54330 -113.02749 22710 ft 231 kts 78°
2026-04-26 03:18 35.54815 -113.00820 22237 ft 241 kts 78°
2026-04-26 03:19 35.55302 -112.98884 21872 ft 242 kts 77°
2026-04-26 03:19 35.55801 -112.96911 21524 ft 241 kts 77°
2026-04-26 03:19 35.56296 -112.94955 21204 ft 239 kts 77°
2026-04-26 03:19 35.56784 -112.93027 20862 ft 239 kts 77°
2026-04-26 03:20 35.57271 -112.91094 20532 ft 238 kts 77°
2026-04-26 03:20 35.57763 -112.89147 20090 ft 242 kts 77°
2026-04-26 03:20 35.58258 -112.87155 19679 ft 247 kts 76°
2026-04-26 03:20 35.58767 -112.85128 19260 ft 253 kts 76°
2026-04-26 03:21 35.59289 -112.83053 18859 ft 256 kts 76°
2026-04-26 03:21 35.59815 -112.80961 18511 ft 254 kts 76°
2026-04-26 03:21 35.60335 -112.78893 18189 ft 252 kts 76°
2026-04-26 03:21 35.60849 -112.76842 17870 ft 253 kts 76°
2026-04-26 03:22 35.61358 -112.74812 17626 ft 250 kts 76°
2026-04-26 03:22 35.61872 -112.72753 17262 ft 253 kts 76°
2026-04-26 03:22 35.62384 -112.70704 16949 ft 253 kts 76°
2026-04-26 03:22 35.62903 -112.68624 16627 ft 252 kts 76°
2026-04-26 03:23 35.63411 -112.66590 16337 ft 250 kts 76°
2026-04-26 03:23 35.63918 -112.64558 16042 ft 248 kts 76°
2026-04-26 03:23 35.64421 -112.62532 15718 ft 248 kts 75°
2026-04-26 03:23 35.64922 -112.60519 15419 ft 247 kts 76°
2026-04-26 03:24 35.65419 -112.58522 15157 ft 245 kts 76°
2026-04-26 03:24 35.65918 -112.56513 14866 ft 245 kts 76°
2026-04-26 03:24 35.66416 -112.54498 14504 ft 249 kts 75°
2026-04-26 03:24 35.66919 -112.52481 14204 ft 248 kts 75°
2026-04-26 03:25 35.67417 -112.50468 13931 ft 246 kts 75°
2026-04-26 03:25 35.67916 -112.48443 13668 ft 244 kts 75°
2026-04-26 03:25 35.68410 -112.46454 13404 ft 243 kts 75°
2026-04-26 03:25 35.68902 -112.44474 13129 ft 243 kts 76°
2026-04-26 03:26 35.69394 -112.42500 12878 ft 241 kts 73°
2026-04-26 03:26 35.70372 -112.40784 12249 ft 257 kts 41°
2026-04-26 03:26 35.71742 -112.39360 11678 ft 258 kts 37°
2026-04-26 03:26 35.73075 -112.37999 11499 ft 237 kts 38°
2026-04-26 03:27 35.74295 -112.36733 11194 ft 228 kts 38°
2026-04-26 03:27 35.75498 -112.35474 10794 ft 227 kts 39°
2026-04-26 03:27 35.76693 -112.34221 10379 ft 226 kts 40°
2026-04-26 03:27 35.77892 -112.32963 9965 ft 224 kts 40°
2026-04-26 03:28 35.79075 -112.31721 9516 ft 221 kts 40°
2026-04-26 03:28 35.80231 -112.30505 9074 ft 218 kts 41°
2026-04-26 03:28 35.81218 -112.29208 8921 ft 196 kts 68°
2026-04-26 03:28 35.81654 -112.27737 8909 ft 176 kts 58°
2026-04-26 03:29 35.82505 -112.26751 8855 ft 170 kts 36°
2026-04-26 03:29 35.83494 -112.25917 8720 ft 174 kts 32°
2026-04-26 03:29 35.84544 -112.25080 8609 ft 182 kts 31°
2026-04-26 03:29 35.85667 -112.24197 8304 ft 202 kts 31°
2026-04-26 03:30 35.86876 -112.23244 8159 ft 205 kts 31°
2026-04-26 03:30 35.88081 -112.22249 7984 ft 210 kts 37°
2026-04-26 03:30 35.89169 -112.21066 7890 ft 209 kts 40°
2026-04-26 03:30 35.90261 -112.19909 7815 ft 207 kts 39°
2026-04-26 03:31 35.91395 -112.18832 7613 ft 205 kts 25°
2026-04-26 03:31 35.92664 -112.18175 7564 ft 180 kts 23°
2026-04-26 03:31 35.93697 -112.17443 7484 ft 156 kts 32°
2026-04-26 03:31 35.94508 -112.16715 7426 ft 141 kts 32°
2026-04-26 03:32 35.95305 -112.16100 7459 ft 131 kts 29°
2026-04-26 03:32 35.96028 -112.15409 7464 ft 127 kts 43°
2026-04-26 03:32 35.96607 -112.14597 7490 ft 125 kts 49°
2026-04-26 03:32 35.97257 -112.13919 7515 ft 122 kts 19°
2026-04-26 03:33 35.98033 -112.13527 7564 ft 119 kts 14°
2026-04-26 03:33 35.98785 -112.13107 7630 ft 119 kts 48°
2026-04-26 03:33 35.98920 -112.12174 7733 ft 106 kts 110°
2026-04-26 03:33 35.98409 -112.11855 7686 ft 91 kts 191°
2026-04-26 03:34 35.97757 -112.12159 7262 ft 108 kts 212°
2026-04-26 03:34 35.97207 -112.12653 7186 ft 92 kts 218°
2026-04-26 03:34 35.96692 -112.13149 6944 ft 95 kts 223°
2026-04-26 03:34 35.96189 -112.13689 6691 ft 95 kts 222°
2026-04-26 03:35 35.95779 -112.14136 6606 ft 56 kts 218°
2026-04-26 03:35 35.95556 -112.14357 6596 ft 33 kts 216°
2026-04-26 03:35 35.95383 -112.14447 6592 ft 19 kts 182°
2026-04-26 03:35 35.95357 -112.14440 6592 ft 0 kts 142°
2026-04-26 03:36 35.95358 -112.14440 6592 ft 0 kts 142°
2026-04-26 03:36 35.95353 -112.14401 6595 ft 13 kts 65°
2026-04-26 03:36 35.95458 -112.14287 6599 ft 25 kts 50°
2026-04-26 03:36 35.95464 -112.14216 6603 ft 0 kts 103°